Weather observations for the past three days for
Tacoma, Tacoma Narrows Airport
Imperial (Metric)
Date Time (pdt) Wind (mph) Vis. (mi.) Weather Sky Cond. Temperature (ºF) Relative Humidity Wind Chill (°F) Heat Index (°F) Pressure Precipitation (in)
Air Dwpt 6 hour altimeter (in) sea level (mb) 1 hr 3 hr 6 hr
Max. Min.
22 04:53 SW 3 10.00 Overcast OVC012 57.9 53.1 64.9 57.9 84% 30.1 1019.1
22 03:53 S 6 10.00 Overcast OVC013 57.9 54 87% 30.11 1019.2
22 02:53 S 6 10.00 Mostly Cloudy BKN013 57.9 54 87% 30.11 1019.3
22 01:53 SW 7 10.00 Fair CLR 59 54 83% 30.1 1019.1
22 00:53 SW 7 10.00 Fair CLR 61 55 81% 30.1 1019.1
21 23:53 SW 7 10.00 Fair CLR 62.1 55.9 80% 30.1 1019.1
21 22:53 SW 5 10.00 Fair CLR 64.9 57 78.1 64.9 76% 30.09 1018.8
21 21:53 W 8 10.00 Fair CLR 66.9 57.9 73% 30.08 1018.5
21 20:53 W 5 10.00 Fair CLR 70 59 68% 30.07 1018.1
21 19:53 W 6 10.00 Fair CLR 73.9 59 60% 30.06 1017.7
21 18:53 W 5 10.00 Fair CLR 75.9 59 56% 78 30.06 1017.6
21 17:53 W 6 10.00 Fair CLR 77 59 54% 79 30.06 1017.6
21 16:53 Vrbl 5 10.00 Fair CLR 78.1 59 78.1 63 52% 79 30.08 1018.3
21 15:53 NW 6 10.00 Fair CLR 77 59 54% 79 30.09 1018.5
21 14:53 SW 6 10.00 Fair CLR 75 59 58% 77 30.09 1018.7
21 13:53 W 8 10.00 Fair CLR 71.1 57.9 63% 30.09 1018.8
21 12:53 Calm 10.00 Fair CLR 69.1 57.9 68% 30.1 1019.0
21 11:53 SW 13 G 20 10.00 Light Rain FEW010 FEW070 SCT090 64.9 59 81% 30.09 1018.8
21 10:53 Vrbl 3 10.00 Partly Cloudy FEW075 FEW100 SCT110 63 57.9 64 60.1 84% 30.12 1019.6
21 09:53 SE 5 10.00 Fair CLR 63 57 81% 30.08 1018.3
21 08:53 NW 7 10.00 Fair CLR 63 57 81% 30.08 1018.3
21 07:53 Vrbl 6 10.00 Fair CLR 63 57 81% 30.08 1018.1
21 06:53 Calm 10.00 Fair CLR 63 57 81% 30.05 1017.2
21 05:53 Calm 10.00 Fair CLR 61 55.9 84% 30.07 1017.8
21 04:53 W 8 10.00 Fair CLR 62.1 57 71.1 60.1 84% 30.09 1018.5
21 03:53 Calm 10.00 Fair CLR 62.1 54 75% 30.05 1017.2
21 02:53 Calm 10.00 Fair CLR 63 54 73% 30.03 1016.5
21 01:53 NW 3 10.00 Fair CLR 64.9 54 68% 30.03 1016.4
21 00:53 NW 3 10.00 Fair CLR 66.9 54 63% 30.03 1016.5
20 23:53 Calm 10.00 Fair CLR 66.9 53.1 61% 30.04 1016.7
20 22:53 N 5 10.00 Fair CLR 70 53.1 86 70 55% 30.03 1016.4
20 21:53 N 13 10.00 Fair CLR 73 52 48% 30.03 1016.4
20 20:53 N 8 10.00 Fair CLR 75 52 45% 78 30.02 1016.1
20 19:53 NE 6 10.00 Fair CLR 80.1 52 38% 80 30.02 1016.3
20 18:53 NE 9 10.00 Fair CLR 82.9 52 34% 82 30.03 1016.5
20 17:53 N 10 10.00 Fair CLR 84.9 52 32% 83 30.04 1016.8
20 16:53 NE 9 10.00 Fair CLR 84 53.1 86 73.9 34% 83 30.05 1017.3
20 15:53 N 10 10.00 Fair CLR 84.9 50 30% 83 30.07 1017.9
20 14:53 NE 12 G 18 10.00 Fair CLR 84.9 50 30% 83 30.08 1018.3
20 13:53 Vrbl 6 10.00 Fair CLR 82.9 52 34% 82 30.1 1018.9
20 12:53 NE 7 10.00 Fair CLR 81 55 41% 81 30.12 1019.7
20 11:53 Calm 10.00 Fair CLR 78.1 55.9 47% 79 30.13 1020.0
20 10:53 Calm 10.00 Fair CLR 73.9 57 75.9 57 56% 30.15 1020.6
20 09:53 Vrbl 3 10.00 Fair CLR 72 57 59% 30.15 1020.7
20 08:53 S 3 10.00 Fair CLR 68 57 68% 30.16 1021.0
20 07:53 NW 3 10.00 Fair CLR 66 55.9 70% 30.16 1021.0
20 06:53 Calm 10.00 Fair CLR 63 55.9 78% 30.15 1020.6
20 05:53 Calm 10.00 Fair CLR 60.1 55 84% 30.15 1020.6
20 04:53 Calm 10.00 Fair CLR 59 54 68 59 83% 30.15 1020.7
20 03:53 Calm 10.00 Fair CLR 62.1 55 78% 30.15 1020.5
20 02:53 N 3 10.00 Fair CLR 62.1 55 78% 30.15 1020.6
20 01:53 N 3 10.00 Fair CLR 64 55 73% 30.16 1020.7
20 00:53 N 3 10.00 Fair CLR 66 55 68% 30.16 1020.8
19 23:53 N 5 10.00 Fair CLR 66.9 54 63% 30.16 1020.9
19 22:53 N 7 10.00 Fair CLR 68 54 86 68 61% 30.15 1020.7
19 21:53 N 3 10.00 Fair CLR 69.1 53.1 57% 30.14 1020.5
19 20:53 N 6 10.00 Fair CLR 73 54 51% 30.13 1019.9
19 19:53 NE 6 10.00 Fair CLR 78.1 55 45% 79 30.13 1019.8
19 18:53 NE 8 10.00 Fair CLR 82 53.1 37% 81 30.13 1019.8
19 17:53 S 7 10.00 Fair CLR 84 51.1 32% 82 30.13 1019.9
19 16:53 SW 5 10.00 Fair CLR 84 50 86 68 31% 82 30.15 1020.5
19 15:53 W 8 10.00 Fair CLR 82.9 52 34% 82 30.16 1020.9
19 14:53 W 8 10.00 Fair CLR 81 53.1 38% 80 30.17 1021.4
19 13:53 NW 7 10.00 Fair CLR 78.1 54 43% 79 30.19 1022.0
19 12:53 Vrbl 7 10.00 Fair CLR 75 55 50% 78 30.2 1022.4
19 11:53 Vrbl 3 10.00 Fair CLR 71.1 55 57% 30.21 1022.6
19 10:53 Calm 10.00 Fair CLR 66.9 55.9 68 57 68% 30.22 1023.0
19 09:53 SE 6 10.00 Overcast OVC010 61 55 81% 30.22 1023.1
19 08:53 S 7 10.00 Overcast OVC009 61 55 81% 30.21 1022.8
19 07:53 SW 6 10.00 Overcast OVC009 60.1 55 84% 30.2 1022.4
19 06:53 SW 3 10.00 Overcast OVC009 59 55.9 90% 30.19 1021.9
19 05:53 S 3 10.00 Fair CLR 57 55 93% 30.17 1021.5
Date Time (pdt) Wind (mph) Vis. (mi.) Weather Sky Cond. Air Dwpt Max. Min. Relative Humidity Wind Chill (°F) Heat Index (°F) altimeter (in) sea level (mb) 1 hr 3 hr 6 hr
6 hour
Temperature (ºF) Pressure Precipitation (in)